Location: Kellogg
(38.0159°N, 90.0546°W)
Time: 03:13:11
(UTC+00:00)

SR - Pass Details

Date: 13 September 2024
Orbit: 577 x 855 km, 66.7° (Epoch: 10 October)

Event Time Altitude Azimuth Distance (km) Brightness Sun altitude
Rises 05:35:16 0° 320° (NW) 2,981 - -48.1°
Reaches altitude 10° 05:37:40 10° 311° (NW) 2,109 - -48.2°
Maximum altitude 05:41:54 32° 249° (WSW) 1,211 - -48.3°
Drops below altitude 10° 05:46:26 10° 187° (S) 2,261 - -48.3°
Sets 05:49:07 0° 178° (S) 3,230 - -48.4°
